period_start,C,m1,H,J0,J1,J2,J3,J4,J5,JA,JB,JC,JD,JJ,JK,JN,#
2016-07-18 00:02:00,0.00,0.53,0.00,24.09,28.36,31.07,14.43,44.00,1020.01,2035.05,3345.97,2973.90,3378.00,599.77,595.60,33.29,0000 0000 0000 0000 000000
2016-07-18 00:07:01,0.02,0.54,0.00,24.09,28.38,31.10,14.42,44.02,1020.02,2035.00,3345.46,2973.31,3377.99,599.86,595.70,33.34,0000 0000 0000 0000 000000
2016-07-18 00:12:03,0.01,0.54,0.00,24.14,28.40,31.11,14.44,44.08,1019.99,2035.00,3345.06,2973.05,3377.75,600.14,595.91,33.39,0000 0000 0000 0000 000000
2016-07-18 00:17:04,0.10,0.54,0.00,24.18,28.42,31.12,14.45,43.98,1019.91,2035.00,3344.28,2972.10,3376.16,600.21,595.82,33.44,0000 0000 0000 0000 000000
2016-07-18 00:22:05,0.13,0.55,0.00,24.19,28.44,31.13,14.48,44.10,1019.76,2035.00,3341.39,2969.11,3373.09,600.22,595.68,33.49,0000 0000 0000 0000 000000
2016-07-18 00:27:06,0.00,0.55,0.00,24.21,28.46,31.14,14.43,43.88,1019.58,2034.99,3341.01,2969.00,3372.73,599.97,595.37,33.54,0000 0000 0000 0000 000000
2016-07-18 00:32:08,0.00,0.55,0.00,24.25,28.47,31.15,14.36,43.98,1019.56,2034.97,3341.00,2968.97,3372.23,600.01,595.28,33.59,0000 0000 0000 0000 000000
2016-07-18 00:37:09,0.00,0.55,0.00,24.29,28.50,31.15,14.47,44.04,1019.56,2034.93,3340.96,2968.87,3372.04,600.07,595.20,33.64,0000 0000 0000 0000 000000
2016-07-18 00:42:10,0.02,0.55,0.00,24.30,28.50,31.17,14.41,43.93,1019.56,2034.78,3340.34,2968.18,3371.88,599.91,595.03,33.69,0000 0000 0000 0000 000000
2016-07-18 00:47:11,0.05,0.55,0.00,24.31,28.52,31.19,14.52,43.96,1019.55,2034.70,3339.10,2967.11,3370.87,600.06,595.19,33.74,0000 0000 0000 0000 000000
2016-07-18 00:52:12,-0.02,0.55,0.00,24.26,28.54,31.21,14.42,43.83,1019.55,2034.37,3338.96,2967.00,3370.20,600.14,595.27,33.79,0000 0000 0000 0000 000000
2016-07-18 00:57:14,-0.01,0.55,0.00,24.15,28.55,31.23,14.45,43.86,1019.55,2034.12,3338.59,2967.00,3370.02,599.82,595.29,33.85,0000 0000 0000 0000 000000
2016-07-18 01:02:15,0.00,0.55,0.00,24.11,28.57,31.25,14.38,43.98,1019.55,2034.05,3338.15,2966.96,3370.00,599.83,595.36,33.90,0000 0000 0000 0000 000000
2016-07-18 01:07:16,0.00,0.55,0.00,23.80,28.57,31.33,14.43,43.99,1019.55,2034.03,3338.01,2966.86,3370.00,599.64,595.79,33.95,0000 0000 0000 0000 000000
2016-07-18 01:12:17,0.00,0.55,0.00,23.08,28.57,31.57,14.57,44.55,1019.51,2034.01,3337.99,2966.54,3369.98,600.02,597.58,34.00,0000 0000 0000 0000 000000
2016-07-18 01:17:18,0.00,0.55,0.00,22.74,28.57,31.48,14.65,44.56,1019.50,2034.01,3337.95,2966.44,3369.97,600.16,598.52,34.05,0000 0000 0000 0000 000000
2016-07-18 01:22:20,0.00,0.55,0.00,23.16,28.57,31.62,14.57,44.37,1019.32,2034.00,3337.79,2966.18,3369.90,600.09,597.35,34.10,0000 0000 0000 0000 000000
2016-07-18 01:27:21,0.02,0.55,0.00,23.66,28.57,31.70,14.51,44.30,1019.11,2034.01,3337.49,2966.06,3369.52,599.94,596.12,34.15,0000 0000 0000 0000 000000
2016-07-18 01:32:22,0.00,0.55,0.00,23.68,28.60,31.68,14.50,44.29,1019.08,2034.00,3337.06,2966.01,3369.07,599.70,595.81,34.20,0000 0000 0000 0000 000000
2016-07-18 01:37:24,0.00,0.55,0.00,23.75,28.60,31.64,14.36,44.19,1019.07,2034.00,3337.00,2965.99,3369.00,599.55,595.54,34.25,0000 0000 0000 0000 000000
2016-07-18 01:42:25,0.00,0.55,0.00,23.45,28.62,31.67,14.48,44.23,1019.06,2034.00,3336.98,2965.93,3369.00,600.06,596.54,34.30,0000 0000 0000 0000 000000
2016-07-18 01:47:26,0.00,0.56,0.00,23.63,28.62,31.62,14.53,44.36,1019.06,2034.00,3336.86,2965.86,3368.95,599.99,596.24,34.35,0000 0000 0000 0000 000000
2016-07-18 01:52:28,0.01,0.56,0.00,23.99,28.64,31.39,14.46,43.94,1019.06,2034.00,3336.76,2965.67,3368.78,599.98,595.36,34.40,0000 0000 0000 0000 000000
2016-07-18 01:57:29,0.03,0.56,0.00,24.12,28.66,31.35,14.51,44.04,1019.03,2033.99,3336.27,2965.16,3368.26,600.24,595.50,34.45,0000 0000 0000 0000 000000
2016-07-18 02:02:30,0.00,0.56,0.00,24.19,28.67,31.35,14.42,44.06,1018.99,2033.98,3336.05,2965.02,3368.04,599.76,594.89,34.50,0000 0000 0000 0000 000000
2016-07-18 02:07:32,0.00,0.56,0.00,24.26,28.70,31.35,14.43,43.95,1018.88,2033.97,3336.00,2965.00,3368.00,600.00,594.83,34.55,0000 0000 0000 0000 000000
2016-07-18 02:12:33,-0.01,0.56,0.00,24.33,28.71,31.36,14.43,44.03,1018.85,2033.93,3336.00,2965.00,3368.00,600.29,595.07,34.60,0000 0000 0000 0000 000000
2016-07-18 02:17:34,0.00,0.56,0.00,24.39,28.72,31.36,14.38,44.02,1018.70,2033.93,3335.98,2965.00,3367.99,599.71,594.20,34.65,0000 0000 0000 0000 000000
2016-07-18 02:22:35,-0.02,0.56,0.00,24.42,28.75,31.37,14.40,43.92,1018.62,2033.75,3335.92,2964.99,3367.89,599.74,594.18,34.70,0000 0000 0000 0000 000000
2016-07-18 02:27:37,-0.00,0.56,0.00,24.48,28.76,31.37,14.44,43.96,1018.60,2033.45,3335.39,2964.84,3367.38,600.37,594.60,34.76,0000 0000 0000 0000 000000
2016-07-18 02:32:38,-0.00,0.56,0.00,24.52,28.78,31.38,14.44,43.88,1018.58,2033.19,3335.07,2964.47,3367.06,600.34,594.53,34.81,0000 0000 0000 0000 000000
2016-07-18 02:37:39,0.00,0.56,0.00,24.56,28.80,31.39,14.40,43.93,1018.58,2033.07,3335.00,2964.09,3367.00,600.07,594.11,34.86,0000 0000 0000 0000 000000
2016-07-18 02:42:41,-0.00,0.56,0.00,24.59,28.81,31.40,14.41,43.81,1018.57,2033.04,3335.00,2964.02,3367.00,600.08,594.05,34.91,0000 0000 0000 0000 000000
2016-07-18 02:47:42,0.00,0.56,0.00,24.62,28.82,31.41,14.40,43.85,1018.57,2033.02,3334.98,2964.00,3366.97,600.06,593.98,34.96,0000 0000 0000 0000 000000
2016-07-18 02:52:43,0.00,0.56,0.00,24.66,28.85,31.41,14.35,43.94,1018.57,2033.02,3334.87,2964.00,3366.87,600.15,593.99,35.01,0000 0000 0000 0000 000000
2016-07-18 02:57:45,0.02,0.56,0.00,24.69,28.85,31.42,14.31,43.92,1018.57,2033.00,3334.20,2963.98,3366.22,599.77,593.62,35.06,0000 0000 0000 0000 000000
2016-07-18 03:02:46,0.00,0.56,0.00,24.72,28.87,31.43,14.33,43.81,1018.57,2033.00,3334.04,2963.92,3366.04,599.82,593.55,35.11,0000 0000 0000 0000 000000
2016-07-18 03:07:48,0.01,0.56,0.00,24.74,28.88,31.43,14.35,44.00,1018.53,2033.00,3334.00,2963.52,3366.00,599.90,593.47,35.16,0000 0000 0000 0000 000000
2016-07-18 03:12:50,0.01,0.56,0.00,24.76,28.90,31.45,14.35,43.94,1018.44,2032.99,3333.98,2963.07,3365.99,599.94,593.50,35.21,0000 0000 0000 0000 000000
2016-07-18 03:17:51,0.00,0.56,0.00,24.78,28.90,31.46,14.38,43.98,1018.33,2032.98,3333.91,2963.02,3365.97,599.88,593.35,35.26,0000 0000 0000 0000 000000
2016-07-18 03:22:52,0.01,0.56,0.00,24.81,28.92,31.47,14.37,43.92,1018.15,2032.97,3333.32,2963.00,3365.60,599.81,593.11,35.31,0000 0000 0000 0000 000000
2016-07-18 03:27:54,0.01,0.56,0.00,24.84,28.92,31.47,14.42,44.03,1018.10,2032.95,3333.03,2963.00,3365.11,600.19,593.37,35.36,0000 0000 0000 0000 000000
2016-07-18 03:32:55,-0.01,0.56,0.00,24.87,28.94,31.49,14.28,44.11,1018.09,2032.88,3333.00,2962.97,3365.01,600.07,593.22,35.41,0000 0000 0000 0000 000000
2016-07-18 03:37:56,-0.01,0.56,0.00,24.89,28.95,31.50,14.34,43.88,1018.08,2032.74,3332.97,2962.70,3365.00,600.03,593.20,35.46,0000 0000 0000 0000 000000
2016-07-18 03:42:57,0.00,0.56,0.00,24.92,28.95,31.51,14.39,44.05,1018.08,2032.48,3332.77,2962.19,3364.98,600.12,593.16,35.51,0000 0000 0000 0000 000000
2016-07-18 03:47:59,0.02,0.56,0.00,24.94,28.97,31.52,14.35,44.09,1018.07,2032.46,3332.23,2962.06,3364.84,599.97,592.90,35.56,0000 0000 0000 0000 000000
2016-07-18 03:53:00,-0.02,0.56,0.00,24.97,28.97,31.53,14.31,44.01,1018.04,2032.26,3332.02,2962.01,3364.38,599.89,592.86,35.62,0000 0000 0000 0000 000000
2016-07-18 03:58:01,-0.01,0.56,0.00,24.99,28.98,31.54,14.36,44.01,1018.02,2032.05,3332.00,2962.00,3364.06,599.92,592.85,35.67,0000 0000 0000 0000 000000
2016-07-18 04:03:03,0.00,0.56,0.00,25.02,29.00,31.54,14.37,43.98,1017.96,2032.04,3331.99,2962.00,3364.01,599.84,592.64,35.72,0000 0000 0000 0000 000000
2016-07-18 04:08:04,0.00,0.56,0.00,25.05,29.00,31.55,14.32,44.06,1017.72,2032.03,3331.92,2961.98,3364.00,599.92,592.63,35.77,0000 0000 0000 0000 000000
2016-07-18 04:13:05,0.00,0.56,0.00,25.07,29.01,31.57,14.39,44.02,1017.64,2032.00,3331.39,2961.96,3363.99,599.94,592.45,35.82,0000 0000 0000 0000 000000
2016-07-18 04:18:07,0.01,0.56,0.00,25.09,29.02,31.58,14.36,43.96,1017.62,2032.00,3331.08,2961.69,3363.92,600.18,592.56,35.87,0000 0000 0000 0000 000000
2016-07-18 04:23:08,0.02,0.56,0.00,25.11,29.02,31.59,14.30,44.02,1017.61,2032.00,3330.99,2961.26,3363.63,600.17,592.49,35.92,0000 0000 0000 0000 000000
2016-07-18 04:28:09,0.09,0.57,0.00,25.13,29.05,31.59,14.34,43.96,1017.59,2032.00,3329.61,2960.12,3361.76,599.81,592.27,35.97,0000 0000 0000 0000 000000
2016-07-18 04:33:11,0.01,0.57,0.00,25.16,29.05,31.62,14.32,43.95,1017.59,2032.00,3329.15,2959.92,3361.15,600.08,592.39,36.02,0000 0000 0000 0000 000000
2016-07-18 04:38:12,0.01,0.57,0.00,25.17,29.06,31.62,14.34,43.92,1017.59,2032.00,3329.01,2959.67,3361.03,600.16,592.45,36.07,0000 0000 0000 0000 000000
2016-07-18 04:43:14,0.02,0.57,0.00,25.20,29.07,31.63,14.33,44.01,1017.57,2032.00,3329.00,2959.16,3361.00,600.20,592.44,36.12,0000 0000 0000 0000 000000
2016-07-18 04:48:15,0.09,0.57,0.00,25.22,29.09,31.63,14.26,44.03,1017.44,2032.00,3327.71,2958.03,3359.68,599.97,592.04,36.17,0000 0000 0000 0000 000000
2016-07-18 04:53:16,0.02,0.57,0.00,25.25,29.10,31.67,14.31,44.12,1017.21,2032.00,3327.01,2957.17,3358.93,599.95,591.84,36.22,0000 0000 0000 0000 000000
2016-07-18 04:58:18,0.00,0.57,0.00,25.28,29.11,31.67,14.31,44.17,1017.12,2032.00,3327.00,2957.03,3358.66,600.13,591.87,36.27,0000 0000 0000 0000 000000
2016-07-18 05:03:19,0.00,0.57,0.00,25.29,29.12,31.66,14.31,44.07,1017.11,2031.99,3326.91,2957.00,3358.13,599.80,591.44,36.32,0000 0000 0000 0000 000000
2016-07-18 05:08:20,0.01,0.58,0.00,25.31,29.13,31.66,14.30,44.13,1017.11,2031.98,3326.38,2956.99,3358.01,599.95,591.69,36.37,0000 0000 0000 0000 000000
2016-07-18 05:13:21,0.00,0.58,0.00,25.34,29.15,31.72,14.30,44.08,1017.11,2031.96,3326.03,2956.93,3358.00,599.79,591.44,36.42,0000 0000 0000 0000 000000
2016-07-18 05:18:22,0.01,0.58,0.00,25.36,29.15,31.71,14.29,43.93,1017.10,2031.95,3325.99,2956.52,3357.94,599.74,591.36,36.47,0000 0000 0000 0000 000000
2016-07-18 05:23:24,0.01,0.58,0.00,25.38,29.17,31.71,14.31,44.05,1017.05,2031.91,3325.96,2956.13,3357.54,599.89,591.40,36.53,0000 0000 0000 0000 000000
2016-07-18 05:28:25,-0.01,0.58,0.00,25.41,29.17,31.72,14.23,44.06,1016.87,2031.71,3325.68,2956.02,3357.10,599.95,591.36,36.58,0000 0000 0000 0000 000000
2016-07-18 05:33:26,-0.00,0.58,0.00,25.42,29.19,31.73,14.27,44.03,1016.74,2031.51,3325.15,2956.00,3357.01,599.67,590.94,36.63,0000 0000 0000 0000 000000
2016-07-18 05:38:28,-0.02,0.58,0.00,25.45,29.20,31.74,14.28,43.92,1016.64,2031.29,3325.03,2956.00,3357.00,599.99,591.24,36.68,0000 0000 0000 0000 000000
2016-07-18 05:43:29,-0.01,0.57,0.00,25.47,29.20,31.75,14.25,44.10,1016.64,2031.11,3325.00,2955.99,3356.99,599.77,590.88,36.73,0000 0000 0000 0000 000000
2016-07-18 05:48:30,-0.00,0.57,0.00,25.49,29.22,31.75,14.30,43.96,1016.63,2031.04,3325.00,2955.98,3356.98,600.04,591.07,36.78,0000 0000 0000 0000 000000
2016-07-18 05:53:31,0.00,0.57,0.00,25.51,29.22,31.76,14.34,43.98,1016.63,2031.03,3324.95,2955.95,3356.85,600.30,591.32,36.83,0000 0000 0000 0000 000000
2016-07-18 05:58:32,0.02,0.58,0.00,25.54,29.22,31.78,14.28,43.82,1016.62,2031.00,3324.34,2955.82,3356.21,599.90,590.90,36.88,0000 0000 0000 0000 000000
2016-07-18 06:03:34,0.01,0.58,0.00,25.56,29.23,31.82,14.29,43.89,1016.62,2031.00,3324.06,2955.37,3356.06,599.95,590.85,36.93,0000 0000 0000 0000 000000
2016-07-18 06:08:35,0.01,0.58,0.00,25.58,29.25,31.82,14.26,43.91,1016.62,2031.00,3324.00,2955.04,3356.00,600.06,590.86,36.98,0000 0000 0000 0000 000000
2016-07-18 06:13:36,-0.00,0.58,0.00,25.60,29.25,31.79,14.33,43.97,1016.61,2031.01,3324.00,2955.02,3356.00,599.86,590.72,37.03,0000 0000 0000 0000 000000
2016-07-18 06:18:37,0.00,0.58,0.00,25.62,29.25,31.82,14.20,43.84,1016.56,2031.00,3323.73,2955.00,3355.98,599.38,590.17,37.08,0000 0000 0000 0000 000000
2016-07-18 06:23:38,0.00,0.58,0.00,25.64,29.25,31.85,14.27,43.86,1016.21,2031.00,3323.07,2955.00,3355.92,600.00,590.49,37.13,0000 0000 0000 0000 000000
2016-07-18 06:28:39,0.01,0.58,0.00,25.66,29.26,31.83,14.33,43.75,1016.15,2031.00,3323.01,2954.96,3355.42,600.06,590.47,37.18,0000 0000 0000 0000 000000
2016-07-18 06:33:41,0.00,0.58,0.00,25.69,29.27,31.83,14.27,43.80,1016.13,2031.00,3322.99,2954.89,3355.05,600.07,590.34,37.23,0000 0000 0000 0000 000000
2016-07-18 06:38:42,0.02,0.58,0.00,25.72,29.27,31.87,14.27,43.78,1016.14,2031.00,3322.68,2954.46,3355.00,599.94,590.28,37.28,0000 0000 0000 0000 000000
2016-07-18 06:43:43,0.02,0.58,0.00,25.74,29.27,31.87,14.26,43.82,1016.13,2031.00,3322.11,2954.12,3355.00,600.29,590.56,37.33,0000 0000 0000 0000 000000
2016-07-18 06:48:44,0.00,0.58,0.00,25.77,29.28,31.89,14.31,43.87,1016.13,2031.00,3322.02,2954.04,3354.99,600.06,590.16,37.38,0000 0000 0000 0000 000000
2016-07-18 06:53:46,0.00,0.58,0.00,25.79,29.30,31.90,14.25,43.83,1016.13,2030.99,3322.00,2954.01,3354.97,599.90,590.07,37.44,0000 0000 0000 0000 000000
2016-07-18 06:58:47,0.00,0.58,0.00,25.81,29.30,31.91,14.19,43.73,1016.13,2030.99,3321.99,2954.00,3354.74,599.70,589.82,37.49,0000 0000 0000 0000 000000
2016-07-18 07:03:48,0.01,0.58,0.00,25.83,29.31,31.92,14.29,43.83,1016.12,2030.99,3321.82,2954.00,3354.16,600.03,590.15,37.54,0000 0000 0000 0000 000000
2016-07-18 07:08:50,0.00,0.58,0.00,25.86,29.32,31.93,14.33,43.90,1016.10,2030.98,3321.49,2953.99,3354.05,600.03,590.22,37.59,0000 0000 0000 0000 000000
2016-07-18 07:13:51,0.00,0.58,0.00,25.88,29.32,31.94,14.21,43.88,1016.05,2030.94,3321.11,2953.96,3354.01,600.06,590.02,37.64,0000 0000 0000 0000 000000
2016-07-18 07:18:52,0.00,0.58,0.00,25.90,29.34,31.96,14.26,43.82,1016.03,2030.92,3321.01,2953.89,3354.00,599.96,590.00,37.69,0000 0000 0000 0000 000000
2016-07-18 07:23:53,-0.01,0.58,0.00,25.92,29.35,31.95,14.31,43.75,1016.01,2030.70,3321.00,2953.53,3353.98,600.07,589.93,37.74,0000 0000 0000 0000 000000
2016-07-18 07:28:55,-0.02,0.58,0.00,25.95,29.35,32.02,14.30,43.77,1015.96,2030.44,3320.99,2953.09,3353.95,600.02,589.74,37.79,0000 0000 0000 0000 000000
2016-07-18 07:33:56,0.00,0.58,0.00,25.98,29.37,32.02,14.20,43.61,1015.99,2030.34,3320.96,2953.03,3353.90,599.76,589.50,37.84,0000 0000 0000 0000 000000
2016-07-18 07:38:57,-0.01,0.58,0.00,26.00,29.37,32.01,14.22,43.68,1016.01,2030.34,3320.82,2953.04,3353.75,600.19,589.91,37.89,0000 0000 0000 0000 000000
2016-07-18 07:43:59,0.01,0.58,0.00,26.01,29.38,31.99,14.22,43.65,1016.01,2030.09,3320.19,2953.00,3353.13,599.96,589.69,37.94,0000 0000 0000 0000 000000
2016-07-18 07:49:00,-0.00,0.58,0.00,26.03,29.40,32.03,14.26,43.63,1015.97,2030.03,3320.00,2953.00,3353.01,600.23,589.82,37.99,0000 0000 0000 0000 000000
2016-07-18 07:54:01,0.00,0.58,0.00,26.06,29.41,32.02,14.25,43.67,1015.80,2030.00,3320.00,2952.99,3353.00,600.03,589.47,38.04,0000 0000 0000 0000 000000
2016-07-18 07:59:02,0.00,0.58,0.00,26.08,29.42,32.06,14.32,43.83,1015.66,2030.00,3320.00,2952.96,3352.98,600.38,589.70,38.09,0000 0000 0000 0000 000000
2016-07-18 08:04:04,0.01,0.58,0.00,26.10,29.43,32.05,14.17,43.63,1015.65,2030.00,3319.97,2952.71,3352.95,599.70,589.00,38.14,0000 0000 0000 0000 000000
2016-07-18 08:09:05,0.01,0.58,0.00,26.11,29.45,32.12,14.23,43.77,1015.64,2030.00,3319.87,2952.25,3352.71,600.03,589.27,38.19,0000 0000 0000 0000 000000
2016-07-18 08:14:06,0.02,0.58,0.00,26.13,29.46,32.10,14.29,43.79,1015.64,2030.00,3319.41,2952.01,3352.19,600.04,589.27,38.24,0000 0000 0000 0000 000000
2016-07-18 08:19:07,0.06,0.59,0.00,26.17,29.47,32.09,14.25,43.73,1015.64,2030.00,3318.24,2951.09,3351.08,600.28,589.49,38.29,0000 0000 0000 0000 000000
2016-07-18 08:24:09,-0.00,0.59,0.00,26.18,29.50,32.09,14.26,43.80,1015.63,2029.97,3318.04,2951.00,3351.00,600.05,589.14,38.34,0000 0000 0000 0000 000000
2016-07-18 08:29:10,-0.00,0.59,0.00,26.21,29.51,32.09,14.17,43.79,1015.57,2029.93,3318.00,2951.00,3350.94,599.75,588.86,38.40,0000 0000 0000 0000 000000
2016-07-18 08:34:11,-0.01,0.59,0.00,26.22,29.52,32.08,14.25,43.77,1015.31,2029.67,3317.95,2950.92,3350.42,600.08,588.95,38.45,0000 0000 0000 0000 000000
2016-07-18 08:39:12,0.02,0.59,0.00,26.25,29.55,32.12,14.18,43.73,1015.34,2029.44,3317.19,2950.18,3350.00,600.18,588.99,38.50,0000 0000 0000 0000 000000
2016-07-18 08:44:14,-0.02,0.59,0.00,26.27,29.56,32.12,14.16,43.57,1015.34,2029.21,3317.00,2950.00,3349.94,599.73,588.46,38.55,0000 0000 0000 0000 000000
2016-07-18 08:49:15,0.01,0.59,0.00,26.29,29.58,32.16,14.24,43.76,1015.22,2029.07,3316.85,2949.98,3349.42,600.07,588.71,38.60,0000 0000 0000 0000 000000
2016-07-18 08:54:17,0.01,0.59,0.00,26.30,29.60,32.17,14.18,43.66,1015.20,2029.00,3316.19,2949.77,3349.01,599.79,588.48,38.65,0000 0000 0000 0000 000000
2016-07-18 08:59:18,0.00,0.59,0.00,26.33,29.62,32.19,14.20,43.63,1015.18,2029.00,3316.03,2949.45,3349.00,600.15,588.71,38.70,0000 0000 0000 0000 000000
2016-07-18 09:04:19,0.00,0.59,0.00,26.34,29.65,32.19,14.21,43.65,1015.18,2029.00,3316.00,2949.11,3348.99,600.04,588.74,38.75,0000 0000 0000 0000 000000
2016-07-18 09:09:21,0.00,0.59,0.00,26.36,29.67,32.22,14.15,43.59,1015.17,2029.00,3315.97,2949.00,3348.74,600.09,588.60,38.80,0000 0000 0000 0000 000000
2016-07-18 09:14:22,0.01,0.59,0.00,26.39,29.70,32.23,14.22,43.63,1015.17,2028.99,3315.51,2949.00,3348.16,599.98,588.43,38.85,0000 0000 0000 0000 000000
2016-07-18 09:19:23,0.00,0.59,0.00,26.41,29.72,32.25,14.18,43.57,1015.16,2028.99,3315.05,2948.97,3348.01,600.25,588.57,38.90,0000 0000 0000 0000 000000
2016-07-18 09:24:24,0.01,0.59,0.00,26.43,29.74,32.24,14.24,43.63,1015.17,2028.98,3315.00,2948.69,3347.99,600.04,588.46,38.95,0000 0000 0000 0000 000000
2016-07-18 09:29:26,0.01,0.59,0.00,26.45,29.76,32.27,14.24,43.54,1015.16,2028.84,3314.92,2948.08,3347.82,600.13,588.44,39.00,0000 0000 0000 0000 000000
2016-07-18 09:34:27,-0.03,0.59,0.00,26.45,29.78,32.30,14.14,43.80,1015.16,2028.30,3314.17,2948.00,3347.14,600.17,588.53,39.05,0000 0000 0000 0000 000000
2016-07-18 09:39:28,-0.01,0.59,0.00,26.49,29.80,32.34,14.22,43.84,1015.15,2028.10,3314.00,2947.99,3347.00,600.10,588.27,39.10,0000 0000 0000 0000 000000
2016-07-18 09:44:30,0.01,0.59,0.00,26.50,29.82,32.33,14.21,43.90,1015.15,2028.01,3313.95,2947.71,3346.98,599.72,587.92,39.15,0000 0000 0000 0000 000000
2016-07-18 09:49:31,0.03,0.59,0.00,26.53,29.85,32.34,14.17,43.88,1015.15,2028.00,3313.36,2947.12,3346.48,599.79,587.95,39.20,0000 0000 0000 0000 000000
2016-07-18 09:54:32,0.01,0.59,0.00,26.56,29.87,32.36,14.21,43.86,1015.15,2028.00,3313.02,2947.00,3346.02,600.09,588.22,39.25,0000 0000 0000 0000 000000
2016-07-18 09:59:33,0.00,0.59,0.00,26.58,29.90,32.38,14.21,43.70,1015.15,2028.00,3313.00,2946.99,3346.00,600.16,588.30,39.30,0000 0000 0000 0000 000000
2016-07-18 10:04:35,0.01,0.59,0.00,26.60,29.93,32.42,14.21,43.81,1015.15,2027.98,3312.75,2946.90,3345.91,599.93,587.95,39.36,0000 0000 0000 0000 000000
2016-07-18 10:09:36,0.05,0.59,0.00,26.63,29.96,32.42,14.23,43.80,1015.11,2027.91,3311.96,2946.16,3345.09,599.95,587.89,39.41,0000 0000 0000 0000 000000
2016-07-18 10:14:37,0.18,0.60,0.00,26.67,29.98,32.43,14.20,43.74,1015.04,2027.78,3309.17,2943.69,3342.16,600.05,587.84,39.46,0000 0000 0000 0000 000000
2016-07-18 10:19:38,0.11,0.61,0.00,26.71,30.01,32.46,14.15,43.64,1015.05,2027.26,3306.07,2940.76,3338.69,599.78,587.58,39.51,0000 0000 0000 0000 000000
2016-07-18 10:24:40,0.03,0.61,0.00,26.73,30.04,32.48,14.18,43.66,1014.98,2027.05,3304.89,2939.76,3337.36,599.77,587.46,39.56,0000 0000 0000 0000 000000
2016-07-18 10:29:41,0.02,0.61,0.00,26.78,30.07,32.49,14.19,43.67,1014.98,2027.00,3304.07,2939.03,3336.79,599.99,587.68,39.61,0000 0000 0000 0000 000000
2016-07-18 10:34:42,0.06,0.61,0.00,26.83,30.11,32.51,14.15,43.68,1014.90,2027.00,3303.46,2938.37,3335.47,600.16,587.60,39.66,0000 0000 0000 0000 000000
2016-07-18 10:39:43,0.24,0.63,0.00,26.86,30.14,32.56,14.22,43.76,1014.91,2026.99,3299.81,2934.34,3331.22,600.18,587.56,39.71,0000 0000 0000 0000 000000
2016-07-18 10:44:45,0.06,0.63,0.00,26.90,30.17,32.60,14.22,43.60,1014.94,2026.94,3298.51,2933.30,3329.88,599.99,587.29,39.76,0000 0000 0000 0000 000000
2016-07-18 10:49:46,0.03,0.63,0.00,26.94,30.21,32.64,14.18,43.84,1014.94,2026.70,3297.52,2932.18,3328.78,600.11,587.36,39.81,0000 0000 0000 0000 000000
2016-07-18 10:54:47,0.06,0.63,0.00,26.97,30.24,32.68,14.16,43.68,1014.79,2026.15,3295.97,2930.84,3327.25,600.12,587.09,39.86,0000 0000 0000 0000 000000
2016-07-18 10:59:49,0.33,0.65,0.00,27.00,30.27,32.72,14.18,43.63,1014.72,2026.03,3291.08,2926.31,3322.23,599.95,586.76,39.91,0000 0000 0000 0000 000000
2016-07-18 11:04:50,0.26,0.66,0.00,27.02,30.31,32.75,14.18,43.64,1014.70,2026.00,3285.95,2921.47,3316.73,600.16,587.18,39.96,0000 0000 0000 0000 000000
2016-07-18 11:09:52,0.18,0.67,0.00,27.02,30.34,32.79,14.15,43.63,1014.68,2026.00,3282.50,2918.40,3313.23,600.05,586.97,40.01,0000 0000 0000 0000 000000
2016-07-18 11:14:53,0.16,0.68,0.00,27.04,30.36,32.83,14.18,43.76,1014.69,2025.98,3279.21,2915.82,3310.29,600.05,587.02,40.06,0000 0000 0000 0000 000000
2016-07-18 11:19:54,0.08,0.69,0.00,27.02,30.39,32.87,14.15,43.63,1014.68,2025.96,3277.28,2914.39,3308.65,599.78,586.71,40.11,0000 0000 0000 0000 000000
2016-07-18 11:24:55,-0.01,0.69,0.00,27.02,30.42,32.91,14.16,43.65,1014.67,2025.63,3276.27,2913.88,3307.97,600.25,587.21,40.16,0000 0000 0000 0000 000000
2016-07-18 11:29:57,0.00,0.69,0.00,27.01,30.44,32.94,14.16,43.58,1014.66,2025.28,3276.00,2913.38,3307.49,600.21,587.15,40.22,0000 0000 0000 0000 000000
2016-07-18 11:34:58,-0.00,0.69,0.00,27.05,30.46,32.96,14.15,43.67,1014.66,2025.03,3275.80,2913.01,3307.01,599.94,586.82,40.27,0000 0000 0000 0000 000000
2016-07-18 11:39:59,0.01,0.69,0.00,27.05,30.48,32.98,14.18,43.67,1014.66,2025.00,3275.15,2913.00,3306.98,600.06,586.88,40.32,0000 0000 0000 0000 000000
2016-07-18 11:45:01,0.00,0.69,0.00,27.05,30.50,32.99,14.19,43.65,1014.66,2025.00,3275.00,2912.91,3306.88,600.03,586.88,40.37,0000 0000 0000 0000 000000
2016-07-18 11:50:02,0.06,0.69,0.00,27.05,30.52,33.01,14.12,43.65,1014.66,2025.00,3274.10,2912.00,3305.82,599.87,586.72,40.42,0000 0000 0000 0000 000000
2016-07-18 11:55:03,0.10,0.69,0.00,27.05,30.55,33.02,14.19,43.58,1014.66,2025.00,3272.45,2910.52,3304.17,600.18,587.08,40.47,0000 0000 0000 0000 000000
2016-07-18 12:00:05,0.12,0.70,0.00,27.03,30.56,33.09,14.24,43.53,1014.65,2024.99,3270.35,2908.70,3302.17,600.65,587.35,40.52,0000 0000 0000 0000 000000
2016-07-18 12:05:06,0.10,0.71,0.00,27.04,30.57,33.11,14.17,43.69,1014.64,2024.98,3268.27,2906.99,3300.21,599.65,586.53,40.57,0000 0000 0000 0000 000000
2016-07-18 12:10:07,0.09,0.71,0.00,27.05,30.59,33.12,14.12,43.66,1014.63,2024.97,3266.63,2905.65,3298.69,599.68,586.50,40.62,0000 0000 0000 0000 000000
2016-07-18 12:15:08,0.03,0.71,0.00,27.04,30.60,33.13,14.12,43.68,1014.53,2024.94,3265.52,2904.97,3297.84,599.66,586.53,40.67,0000 0000 0000 0000 000000
2016-07-18 12:20:09,0.04,0.72,0.00,27.01,30.62,33.17,14.13,43.63,1014.39,2024.91,3264.78,2904.21,3297.05,599.92,586.72,40.72,0000 0000 0000 0000 000000
2016-07-18 12:25:11,0.08,0.72,0.00,26.99,30.62,33.24,14.21,43.58,1014.23,2024.80,3263.26,2903.18,3295.80,600.11,586.82,40.77,0000 0000 0000 0000 000000
2016-07-18 12:30:12,0.24,0.73,0.00,26.97,30.64,33.28,14.23,43.62,1014.19,2024.45,3258.82,2899.36,3291.66,600.18,586.87,40.82,0000 0000 0000 0000 000000
2016-07-18 12:35:13,0.24,0.74,0.00,26.97,30.65,33.30,14.09,43.53,1014.19,2024.29,3253.97,2895.31,3287.23,599.64,586.50,40.87,0000 0000 0000 0000 000000
2016-07-18 12:40:14,0.09,0.75,0.00,26.97,30.65,33.28,14.15,43.39,1014.18,2024.11,3251.32,2893.28,3284.89,600.03,586.74,40.92,0000 0000 0000 0000 000000
2016-07-18 12:45:16,0.08,0.75,0.00,26.96,30.65,33.32,14.17,43.55,1014.18,2024.05,3249.53,2891.82,3283.46,599.84,586.59,40.97,0000 0000 0000 0000 000000
2016-07-18 12:50:17,0.11,0.76,0.00,26.96,30.65,33.36,14.07,43.55,1014.17,2024.03,3247.46,2890.33,3281.65,600.01,586.75,41.02,0000 0000 0000 0000 000000
2016-07-18 12:55:18,0.12,0.76,0.00,26.95,30.66,33.38,14.23,43.51,1014.13,2024.02,3245.07,2888.42,3279.63,600.20,586.91,41.07,0000 0000 0000 0000 000000